Location: Dittelbrunn
(50.0738°N, 10.2196°E)
Time: 04:21:39
(UTC+00:00)

Cosmos 2278 Rocket - Pass Details

Date: 18 September 2020
Orbit: 841 x 845 km, 71.0° (Epoch: 20 October)

Event Time Altitude Azimuth Distance (km) Brightness Sun altitude
Exits shadow 23:04:24 24° 325° (NW) 1,703 4.1 -38.5°
Drops below altitude 10° 23:08:34 10° 13° (NNE) 2,472 5.3 -38.5°
Sets 23:11:32 0° 27° (NNE) 3,411 6.1 -38.5°
